When you browse on this site, cookies collect data to enhance your experience and personalize the content and advertising you see.
Visit our Privacy Policy to learn more. By continuing to use the site, you agree to this use of cookies and data.
  • Em Portugal
  • Lista de países
  • Para 7 dias
  • Temperatura da água
  • Mapa do tempo
  • Widgets de tempo
  • user-avatar
    Iniciar Sessão

    Previsão horária em Eger

    Hoje, 23 Setembro, Segunda-feira

    Tempo Temperatura Precipitação Vento Pressão Humidade
    00:00 +13°C° 0 mm 1 m/s 745 mmHg 47%
    01:00 +13°C° 0 mm 1 m/s 744 mmHg 49%
    02:00 +13°C° 0 mm 1 m/s 744 mmHg 50%
    03:00 +13°C° 0 mm 1 m/s 744 mmHg 50%
    04:00 +13°C° 0 mm 1 m/s 744 mmHg 50%
    05:00 +13°C° 0 mm 1 m/s 744 mmHg 50%
    06:00 +14°C° 0 mm 1 m/s 744 mmHg 50%
    07:00 +14°C° 0 mm 1 m/s 744 mmHg 40%
    08:00 +15°C° 0.1 mm 1 m/s 744 mmHg 43%
    09:00 +15°C° 0.1 mm 2 m/s 744 mmHg 46%
    10:00 +16°C° 0.1 mm 2 m/s 744 mmHg 48%
    11:00 +15°C° 0.1 mm 2 m/s 744 mmHg 53%
    12:00 +15°C° 0.1 mm 2 m/s 744 mmHg 58%
    13:00 +16°C° 0 mm 1 m/s 744 mmHg 60%
    14:00 +16°C° 0.1 mm 1 m/s 744 mmHg 63%
    15:00 +15°C° 0.1 mm 1 m/s 743 mmHg 66%
    16:00 +15°C° 0.1 mm 1 m/s 743 mmHg 69%
    17:00 +15°C° 0 mm 1 m/s 743 mmHg 69%
    18:00 +15°C° 0 mm 2 m/s 743 mmHg 68%
    19:00 +15°C° 0 mm 2 m/s 744 mmHg 68%
    20:00 +15°C° 0 mm 2 m/s 743 mmHg 67%
    21:00 +15°C° 0 mm 2 m/s 743 mmHg 66%
    22:00 +15°C° 0 mm 2 m/s 743 mmHg 66%
    23:00 +15°C° 0 mm 2 m/s 743 mmHg 67%

    Amanhã, 24 Setembro, Terça-feira

    Tempo Temperatura Precipitação Vento Pressão Humidade
    00:00 +15°C° 0 mm 2 m/s 743 mmHg 69%
    01:00 +14°C° 0 mm 2 m/s 743 mmHg 71%
    02:00 +14°C° 0 mm 2 m/s 743 mmHg 74%
    03:00 +14°C° 0 mm 1 m/s 743 mmHg 76%
    04:00 +14°C° 0 mm 1 m/s 743 mmHg 78%
    05:00 +14°C° 0 mm 2 m/s 743 mmHg 76%
    06:00 +14°C° 0 mm 2 m/s 743 mmHg 74%
    07:00 +15°C° 0 mm 2 m/s 743 mmHg 71%
    08:00 +17°C° 0 mm 2 m/s 743 mmHg 63%
    09:00 +19°C° 0 mm 2 m/s 743 mmHg 54%
    10:00 +21°C° 0 mm 2 m/s 743 mmHg 45%
    11:00 +23°C° 0 mm 2 m/s 743 mmHg 42%
    12:00 +24°C° 0 mm 3 m/s 742 mmHg 39%
    13:00 +25°C° 0 mm 3 m/s 742 mmHg 36%
    14:00 +25°C° 0 mm 3 m/s 742 mmHg 38%
    15:00 +24°C° 0 mm 2 m/s 742 mmHg 40%
    16:00 +23°C° 0 mm 2 m/s 742 mmHg 42%
    17:00 +21°C° 0 mm 2 m/s 742 mmHg 45%
    18:00 +21°C° 0 mm 1 m/s 742 mmHg 48%
    19:00 +20°C° 0 mm 1 m/s 742 mmHg 51%
    20:00 +19°C° 0 mm 1 m/s 742 mmHg 53%
    21:00 +18°C° 0 mm 2 m/s 742 mmHg 55%
    22:00 +18°C° 0 mm 2 m/s 742 mmHg 56%
    23:00 +17°C° 0 mm 2 m/s 742 mmHg 60%

    Depois de amanhã, 25 Setembro, Quarta-feira

    Tempo Temperatura Precipitação Vento Pressão Humidade
    00:00 +17°C° 0 mm 2 m/s 742 mmHg 63%
    01:00 +16°C° 0 mm 2 m/s 742 mmHg 67%
    02:00 +16°C° 0.4 mm 2 m/s 742 mmHg 73%
    03:00 +15°C° 0.4 mm 2 m/s 742 mmHg 79%
    04:00 +15°C° 0.4 mm 2 m/s 742 mmHg 85%
    05:00 +15°C° 0.2 mm 2 m/s 741 mmHg 87%
    06:00 +15°C° 0.2 mm 2 m/s 741 mmHg 88%
    07:00 +15°C° 0.2 mm 2 m/s 741 mmHg 89%
    08:00 +16°C° 0 mm 2 m/s 742 mmHg 85%
    09:00 +17°C° 0 mm 2 m/s 742 mmHg 82%
    10:00 +17°C° 0 mm 2 m/s 742 mmHg 79%
    11:00 +18°C° 0 mm 2 m/s 742 mmHg 74%
    12:00 +19°C° 0 mm 2 m/s 742 mmHg 70%
    13:00 +20°C° 0 mm 2 m/s 741 mmHg 66%
    14:00 +20°C° 0.1 mm 2 m/s 741 mmHg 66%
    15:00 +20°C° 0.1 mm 2 m/s 741 mmHg 67%
    16:00 +21°C° 0.1 mm 1 m/s 741 mmHg 68%
    17:00 +20°C° 0.1 mm 1 m/s 741 mmHg 73%
    18:00 +19°C° 0.1 mm 1 m/s 741 mmHg 78%
    19:00 +18°C° 0.1 mm 1 m/s 741 mmHg 83%
    20:00 +18°C° 0 mm 1 m/s 741 mmHg 83%
    21:00 +16°C° 0 mm 1 m/s 741 mmHg 84%
    22:00 +16°C° 0 mm 1 m/s 742 mmHg 85%
    23:00 +16°C° 0 mm 1 m/s 741 mmHg 84%

    26 Setembro, Quinta-feira

    Tempo Temperatura Precipitação Vento Pressão Humidade
    00:00 +16°C° 0 mm 1 m/s 741 mmHg 84%
    01:00 +15°C° 0 mm 1 m/s 741 mmHg 84%
    02:00 +15°C° 0 mm 1 m/s 741 mmHg 85%
    03:00 +15°C° 0 mm 1 m/s 741 mmHg 85%
    04:00 +15°C° 0 mm 1 m/s 742 mmHg 86%
    05:00 +15°C° 0.2 mm 1 m/s 742 mmHg 87%
    06:00 +15°C° 0.2 mm 1 m/s 742 mmHg 89%
    07:00 +15°C° 0.2 mm 2 m/s 742 mmHg 90%
    08:00 +15°C° 0.8 mm 1 m/s 742 mmHg 90%
    09:00 +15°C° 0.8 mm 1 m/s 743 mmHg 89%
    10:00 +15°C° 0.8 mm 1 m/s 743 mmHg 89%
    11:00 +15°C° 0.3 mm 1 m/s 743 mmHg 88%
    12:00 +16°C° 0.3 mm 1 m/s 743 mmHg 88%
    13:00 +16°C° 0.3 mm 1 m/s 743 mmHg 87%
    14:00 +16°C° 0 mm 1 m/s 743 mmHg 85%
    15:00 +16°C° 0 mm 1 m/s 743 mmHg 82%
    16:00 +18°C° 0 mm 1 m/s 743 mmHg 79%
    17:00 +16°C° 0 mm 1 m/s 743 mmHg 83%
    18:00 +14°C° 0 mm 0 m/s 743 mmHg 86%
    19:00 +13°C° 0 mm 0 m/s 743 mmHg 90%
    20:00 +12°C° 0 mm 0 m/s 744 mmHg 90%
    21:00 +13°C° 0 mm 1 m/s 744 mmHg 90%
    22:00 +13°C° 0 mm 1 m/s 745 mmHg 90%
    23:00 +13°C° 0 mm 1 m/s 745 mmHg 90%

    27 Setembro, Sexta-feira

    Tempo Temperatura Precipitação Vento Pressão Humidade
    00:00 +12°C° 0 mm 1 m/s 745 mmHg 91%
    01:00 +12°C° 0 mm 1 m/s 745 mmHg 91%
    02:00 +12°C° 0 mm 1 m/s 745 mmHg 91%
    03:00 +12°C° 0 mm 1 m/s 745 mmHg 92%
    04:00 +12°C° 0 mm 1 m/s 746 mmHg 92%
    05:00 +12°C° 0 mm 1 m/s 746 mmHg 89%
    06:00 +13°C° 0 mm 1 m/s 746 mmHg 86%
    07:00 +13°C° 0 mm 0 m/s 746 mmHg 83%
    08:00 +16°C° 0 mm 1 m/s 746 mmHg 75%
    09:00 +19°C° 0 mm 1 m/s 746 mmHg 67%
    10:00 +20°C° 0 mm 1 m/s 747 mmHg 59%
    11:00 +21°C° 0 mm 1 m/s 747 mmHg 55%
    12:00 +21°C° 0 mm 2 m/s 746 mmHg 51%
    13:00 +23°C° 0 mm 2 m/s 746 mmHg 47%
    14:00 +23°C° 0 mm 2 m/s 746 mmHg 49%
    15:00 +21°C° 0 mm 2 m/s 746 mmHg 50%
    16:00 +22°C° 0 mm 1 m/s 746 mmHg 51%
    17:00 +21°C° 0 mm 1 m/s 746 mmHg 57%
    18:00 +19°C° 0 mm 1 m/s 746 mmHg 62%
    19:00 +18°C° 0 mm 1 m/s 746 mmHg 68%
    20:00 +16°C° 0 mm 1 m/s 747 mmHg 70%
    21:00 +16°C° 0 mm 1 m/s 747 mmHg 72%
    22:00 +16°C° 0 mm 1 m/s 747 mmHg 74%
    23:00 +15°C° 0 mm 1 m/s 747 mmHg 76%

    28 Setembro, Sábado

    Tempo Temperatura Precipitação Vento Pressão Humidade
    00:00 +15°C° 0 mm 1 m/s 747 mmHg 78%
    01:00 +15°C° 0 mm 1 m/s 747 mmHg 79%
    02:00 +14°C° 0 mm 0 m/s 747 mmHg 80%
    03:00 +14°C° 0 mm 0 m/s 747 mmHg 81%
    04:00 +13°C° 0 mm 0 m/s 748 mmHg 82%
    05:00 +15°C° 0 mm 1 m/s 748 mmHg 81%
    06:00 +15°C° 0 mm 1 m/s 748 mmHg 79%
    07:00 +16°C° 0 mm 1 m/s 748 mmHg 77%
    08:00 +19°C° 0 mm 1 m/s 748 mmHg 70%
    09:00 +21°C° 0 mm 1 m/s 748 mmHg 63%
    10:00 +21°C° 0 mm 2 m/s 749 mmHg 56%
    11:00 +23°C° 0 mm 2 m/s 748 mmHg 53%
    12:00 +24°C° 0 mm 2 m/s 748 mmHg 51%
    13:00 +25°C° 0 mm 3 m/s 748 mmHg 48%
    14:00 +24°C° 0 mm 2 m/s 747 mmHg 49%
    15:00 +24°C° 0 mm 2 m/s 747 mmHg 50%
    16:00 +24°C° 0 mm 2 m/s 747 mmHg 51%
    17:00 +23°C° 0 mm 2 m/s 747 mmHg 56%
    18:00 +20°C° 0 mm 2 m/s 747 mmHg 61%
    19:00 +20°C° 0 mm 1 m/s 747 mmHg 66%
    20:00 +19°C° 0 mm 1 m/s 747 mmHg 68%
    21:00 +19°C° 0 mm 1 m/s 747 mmHg 70%
    22:00 +16°C° 0 mm 0 m/s 747 mmHg 72%
    23:00 +16°C° 0 mm 0 m/s 747 mmHg 73%
    Mostrar mais